Simultaneous Nadir Overpasses (SNOs) Predictions

Prediction of SNOs between AQUA and METOP-A Satellite Orbit:

Table of predicted SNOs for the next 14.0 days since TLE Epoch: 8/10/2019
Index Date (AQUA) Time (AQUA) Lat,Lon (AQUA) SZA (AQUA ) Date (METOP-A) Time (METOP-A) Lat,Lon (METOP-A) SZA (METOP-A ) Distance(km) Time Diff (sec)
1 08/11/2019 17:59:30 75.35, -99.27 60.36 08/11/2019 17:58:50 75.33, -99.29 60.36 1.54 40
2 08/11/2019 18:48:57 -75.42, 68.17 119.56 08/11/2019 18:49:30 -75.42, 68.29 119.57 3.29 33
3 08/14/2019 13:33:44 75.32, -32.76 61.17 08/14/2019 13:32:58 75.32, -32.89 61.19 3.66 46
4 08/14/2019 14:23:11 -75.39, 134.68 118.74 08/14/2019 14:23:38 -75.41, 134.70 118.72 2.24 27
5 08/17/2019 09:07:59 75.35, 33.60 62.08 08/17/2019 09:07:05 75.36, 33.65 62.10 1.81 54
6 08/17/2019 09:57:26 -75.42,-158.96 117.83 08/17/2019 09:57:46 -75.41,-158.89 117.85 2.65 20
7 08/20/2019 04:42:12 75.33, 100.09 62.97 08/20/2019 04:41:12 75.35, 100.04 63.00 2.17 60
8 08/20/2019 05:31:39 -75.41, -92.47 116.95 08/20/2019 05:31:53 -75.40, -92.49 116.95 0.94 14
9 08/20/2019 06:21:15 75.83, 73.95 63.54 08/20/2019 06:22:23 75.83, 76.19 63.43 61.05 68
10 08/23/2019 00:16:27 75.37, 166.42 63.94 08/23/2019 00:15:20 75.34, 166.43 63.92 3.83 67
11 08/23/2019 01:05:53 -75.39, -26.00 116.03 08/23/2019 01:06:01 -75.39, -26.09 116.03 2.56 8




NCC Satellite Simultaneous Nadir Overpasses (SNOs) Prediction Service
